Location: Boitzum
(52.1496°N, 9.6943°E)
Time: 06:13:58
(UTC+00:00)

Cosmos 1745 Rocket - Pass Details

Date: 13 January 2026
Orbit: 952 x 996 km, 83.0° (Epoch: 18 February)

Event Time Altitude Azimuth Distance (km) Brightness Sun altitude
Exits shadow 03:49:15 70° 69° (ENE) 1,017 4.1 -32.1°
Drops below altitude 10° 03:55:01 10° 13° (NNE) 2,693 6.5 -31.2°
Sets 03:57:31 0° 12° (NNE) 3,642 7.2 -30.9°
